SCP
0 0 0 0 0 0 0 0 0 0 0 0 0 0 0 0 0 0 0 0 0 0 0 0 0 0 0 0 0 0 0 0 0 0 0 0 0 0 0 0 0 0 0 0
0 0 0 0 0 0 0 0 0 0 0 0 0 0 0 0 0 0 0 0 0 0 0 0 0 0 0 0 0 0 0 0 0 0 0 0 0 0 0 0 0 0 0 0
0 0 0 0 0 0 0 0 0 0 0 0 0 0 0 0 0 0 0 0 0 0 0 0 0 0 0 0 0 0 0 0 0 0 0 0 0 0 0 0 0 0 0 0
0 0 0 0 0 0 0 0 0 0 0 0 0 0 0 0 0 0 0 0 0 0 0 0 0 0 0 0 0 0 0 0 0 0 0 0 0 0 0 0 0 0 0 0
-0 -0 0 0 0 0 0 0 0 0 0 0 0 0 0 0 0 0 0 0 0 0 0 0 0 0 0 0 0 0 0 0 0 0 0 0 0 0 0 0 0 0 0 0
0 0 0 0 0 0 0 0 0 0 0 0 0 0 0 0 0 0 0 0 0 0 0 0 0 0 0 0 0 0 0 0 0 0 0 0 0 0 0 0 0 0 0 0
-0 0 0 0 0 0 0 0 0 0 0 0 0 0 0 0 0 0 0 0 0 0 0 0 0 0 0 0 0 0 0 0 0 0 0 0 0 0 0 0 0 0 0 0
-0 -0 0 0 0 0 0 0 0 -0 -0 -0 0 0 0 0 0 0 0 0 0 0 0 0 0 0 0 0 0 0 0 0 0 0 0 0 0 0 0 0 0 0 0 0
0 -0 0 0 0 0 0 0 0 0 0 0 0 0 0 0 0 0 0 0 0 0 0 0 0 0 0 0 0 0 0 0 0 0 0 0 0 0 0 0 0 0 0 0
-0 -0 -0 -0 0 0 0 0 0 0 0 0 0 0 0 0 0 0 0 0 0 0 0 0 0 0 0 0 0 0 0 0 0 0 0 0 0 0 0 0 0 0 0 0
-0 -0 -0 -0 -0 -0 -0 0 0 0 0 0 0 0 0 0 0 0 0 0 0 0 0 0 0 0 0 0 0 0 0 0 0 0 0 0 0 0 0 0 0 0 0 0
-0 0 -0 -0 -0 0 -0 -0 0 0 0 -0 0 0 0 0 0 0 0 0 0 0 0 0 0 0 0 0 0 0 0 0 0 0 0 0 0 0 0 0 0 0 0 0
0 0 0 0 0 0 0 -0 0 0 0 0 0 0 0 0 0 0 0 0 0 0 0 0 0 0 0 0 0 0 0 0 0 0 0 0 0 0 0 0 0 0 0 0
0 0 0 0 0 0 0 0 0 -0 0 0 0 0 0 0 0 0 0 0 0 0 0 0 0 0 0 0 0 0 0 0 0 0 0 0 0 0 0 0 0 0 0 0
0 0 0 0 0 0 0 0 0 0 0 0 0 0 0 0 0 0 0 0 0 0 0 0 0 0 0 0 0 0 0 0 0 0 0 0 0 0 0 0 0 0 0 0
0 0 0 0 0 0 0 0 0 0 0 0 0 0 0 0 0 0 0 0 0 0 0 0 0 0 0 0 0 0 0 0 0 0 0 0 0 0 0 0 0 0 0 0
0 0 0 0 0 0 -0 -0 0 0 0 0 0 0 0 0 0 0 0 0 0 0 0 0 0 0 0 0 0 0 0 0 0 0 0 0 0 0 0 0 0 0 0 0
0 0 -0 -0 -0 -0 0 -0 0 0 0 0 0 0 0 0 0 0 0 0 0 0 0 0 0 0 0 0 0 0 0 0 0 0 0 0 0 0 0 0 0 0 0 0
-0 -0 -0 -0 0 -0 0 0 0 0 0 0 0 0 0 0 0 0 0 0 0 0 0 0 0 0 0 0 0 0 0 0 0 0 0 0 0 0 0 0 0 0 0 0
-0 -0 -0 -0 -0 0 0 0 0 0 0 0 0 0 0 0 0 0 0 0 0 0 0 0 0 0 0 0 0 0 0 0 0 0 0 0 0 0 0 0 0 0 0 0
-0 -0 -0 -0 -0 -0 0 0 0 0 0 0 0 0 0 0 0 0 0 0 0 0 0 0 0 0 0 0 0 0 0 0 0 0 0 0 0 0 0 0 0 0 0 0
-0 -0 -0 -0 -0 -0 0 0 0 0 0 0 0 0 0 0 0 0 0 0 0 0 0 0 0 0 0 0 0 0 0 0 0 0 0 0 0 0 0 0 0 0 0 0
-0 -0 -0 -0 -0 0 0 0 0 0 0 0 0 0 0 0 0 0 0 0 0 0 0 0 0 0 0 0 0 0 0 0 0 0 0 0 0 0 0 0 0 0 0 0
0 -0 -0 0 0 0 0 0 0 0 0 0 0 0 0 0 0 0 0 0 0 0 0 0 0 0 0 0 0 0 0 0 0 0 0 0 0 0 0 0 0 0 0 0
0 0 0 0 0 0 0 0 0 0 0 0 0 0 0 0 0 0 0 0 0 0 0 0 0 0 0 0 0 0 0 0 0 0 0 0 0 0 0 0 0 0 0 0
0 0 -0 0 0 0 0 0 0 0 0 0 0 0 0 0 0 0 0 0 0 0 0 0 0 0 0 0 0 0 0 0 0 0 0 0 0 0 0 0 0 0 0 -0
0 -0 0 -0 0 0 0 0 0 0 0 0 0 0 0 0 0 0 0 0 0 0 0 0 0 0 0 0 0 0 0 0 0 0 0 0 0 0 0 0 0 0 0 0
Wind_Speed_500mb
51 48 39 37 37 53 52 63 43 48 51 45 31 21 33 61 57 49 58 61 61 62 63 58 58 57 55 50 47 43 40 38 37 39 39 41 47 51 52 52 56 63 67 63
50 54 56 57 55 41 56 58 52 47 63 38 23 29 21 45 54 58 64 66 66 65 61 62 58 61 58 52 51 46 39 38 33 35 41 43 47 48 50 55 57 61 60 64
40 52 51 54 59 55 42 40 42 46 70 14 29 25 42 48 34 31 44 61 62 66 62 62 60 60 58 50 48 42 36 34 36 36 37 40 43 47 52 55 61 60 60 58
26 43 66 37 44 46 42 49 45 45 49 34 38 42 42 22 27 38 34 42 44 53 57 59 58 55 49 46 43 39 38 36 33 33 35 38 45 51 56 58 59 58 63 58
18 30 38 35 44 31 26 30 33 47 52 46 59 44 37 32 42 34 33 43 44 50 55 54 56 54 51 49 46 40 36 34 30 31 36 40 47 53 54 57 59 61 59 56
23 12 19 37 31 20 7 29 18 21 44 41 31 25 21 48 45 45 38 35 44 47 49 54 57 53 49 45 40 35 32 30 30 34 38 43 48 52 53 56 59 58 57 56
21 11 20 21 32 20 25 17 8 18 50 37 21 31 29 35 38 41 44 43 45 51 54 52 49 44 41 35 34 30 26 30 34 34 37 43 46 49 54 54 56 53 53 52
8 7 26 43 39 13 25 67 53 40 32 17 23 33 43 47 48 51 51 48 50 53 50 45 41 41 38 37 32 28 30 32 34 36 40 41 48 52 53 55 49 53 52 47
8 8 15 49 19 57 77 77 61 54 47 12 28 39 42 44 45 52 51 50 48 46 46 44 41 37 36 33 29 29 31 33 35 36 39 44 47 52 52 49 47 46 49 51
8 31 37 51 63 53 47 67 76 59 45 14 14 34 40 38 44 47 47 48 46 45 44 44 40 38 36 32 30 29 30 31 33 37 41 42 44 46 52 48 45 52 58 64
43 50 39 50 47 70 58 58 65 60 54 30 19 26 32 35 35 43 47 45 42 44 43 40 36 33 29 30 29 30 31 33 34 37 40 42 45 48 50 47 45 60 56 52
34 35 42 48 47 56 47 46 50 49 48 37 37 34 35 35 40 45 46 44 42 43 43 38 31 29 28 27 27 26 31 33 35 37 41 42 45 49 43 47 59 54 44 44
55 65 83 87 80 74 75 83 71 54 51 51 32 29 40 46 46 45 44 46 45 44 39 33 31 29 28 27 28 29 32 35 37 40 44 43 41 42 51 62 54 44 39 37
78 63 67 69 56 64 74 70 63 67 74 70 55 43 46 53 48 51 53 48 43 42 37 33 32 30 24 25 27 32 34 37 39 40 36 37 41 50 56 49 53 52 44 37
85 70 80 87 82 76 72 62 63 64 71 66 54 49 50 56 50 58 48 46 42 39 37 34 30 26 24 24 27 33 37 39 37 37 40 41 46 43 41 45 44 48 51 42
68 57 63 61 57 64 67 56 61 66 57 43 47 50 54 58 58 53 50 48 44 40 39 33 25 18 23 30 33 34 33 29 29 32 35 39 37 42 44 39 45 55 50 51
50 28 36 46 47 49 57 66 67 55 48 50 50 54 50 53 55 49 48 40 26 35 31 31 28 25 30 29 26 25 30 36 36 25 18 31 39 40 42 52 46 49 47 44
24 29 33 49 51 61 71 64 61 59 52 45 45 48 58 68 60 53 39 31 44 38 33 25 23 27 23 22 20 28 32 19 20 25 31 28 41 42 40 44 43 38 41 39
51 55 53 53 57 57 62 65 54 63 52 48 43 54 69 65 50 40 41 48 41 31 23 26 24 22 22 21 25 14 15 22 22 26 35 39 37 34 38 39 39 34 33 34
57 44 42 46 47 49 54 51 39 42 42 44 45 63 66 50 43 49 49 42 33 32 31 27 24 25 22 15 4 15 18 22 28 29 29 29 31 31 35 35 34 34 30 30
58 47 38 40 47 61 47 34 45 42 40 45 56 57 51 54 51 53 45 41 37 31 26 22 22 16 7 3 9 15 21 19 23 24 30 30 31 30 33 31 32 27 27 30
60 51 48 52 50 35 16 28 35 41 56 63 57 55 56 53 50 42 35 34 25 17 15 16 16 5 6 4 12 14 15 18 26 23 28 28 27 30 33 29 26 26 27 28
49 42 42 27 10 3 8 25 45 53 57 57 56 57 57 57 50 43 38 28 20 14 11 12 4 7 1 7 11 12 14 22 21 27 28 25 29 32 27 23 21 23 24 26
34 34 19 6 16 30 37 36 51 56 58 49 44 50 51 48 36 26 21 18 11 9 9 4 5 6 5 6 9 10 16 19 22 26 26 23 22 25 27 22 21 21 22 23
16 7 11 23 40 47 50 50 55 54 48 47 43 38 35 28 20 24 17 11 5 2 4 6 3 0 1 4 8 14 13 17 22 25 24 23 23 22 23 21 17 21 21 20
1 16 27 40 50 51 45 48 53 51 50 44 36 28 23 18 17 14 9 4 6 12 11 7 5 3 4 6 8 14 19 18 21 26 25 23 24 25 22 26 21 19 19 19
19 31 44 48 47 45 39 37 43 39 34 33 31 24 19 15 11 9 7 9 7 6 5 7 8 7 7 8 12 17 19 20 21 23 25 26 22 23 28 24 27 18 17 15
Wind_Direction_500mb
260 265 260 234 210 217 217 230 230 244 246 245 238 228 207 203 210 198 198 199 208 214 212 212 214 213 216 217 218 224 233 244 255 268 278 283 287 291 296 300 301 303 305 305
258 255 254 261 259 236 217 228 239 246 260 244 259 248 256 202 210 211 206 203 212 215 214 213 213 213 213 216 219 229 234 247 262 270 278 284 290 296 298 302 304 306 306 305
274 264 253 243 245 246 239 224 223 227 240 219 253 238 255 259 248 224 212 206 211 216 214 213 210 212 213 215 219 229 240 247 257 270 277 285 292 295 299 302 306 307 307 307
270 269 246 247 232 242 243 240 231 243 254 249 242 248 251 234 223 211 205 212 215 214 215 214 209 207 207 210 217 224 235 249 260 268 279 286 289 294 298 308 309 308 308 313
264 250 271 251 233 218 214 244 234 236 251 253 251 252 239 217 225 209 213 221 214 217 215 209 202 203 208 212 219 227 236 250 259 270 276 284 290 298 306 308 309 311 310 313
269 263 249 234 238 207 143 254 191 236 251 250 244 240 242 226 224 212 204 211 201 205 204 200 199 202 204 209 219 229 243 250 260 267 279 290 300 305 307 307 310 310 312 313
257 277 299 317 255 201 214 260 191 267 255 245 219 230 220 196 196 202 191 196 195 194 191 194 199 200 206 218 224 237 246 251 261 274 284 292 300 301 304 307 311 312 311 316
236 245 264 341 334 28 324 336 349 347 1 243 186 162 157 162 169 175 183 186 188 185 186 188 192 200 205 214 227 239 247 256 267 278 290 295 297 300 303 310 312 310 313 311
251 245 241 289 257 324 324 318 326 337 344 336 160 155 162 161 168 178 181 185 191 193 186 187 194 200 207 221 230 241 249 260 275 285 288 291 295 298 304 307 310 310 315 309
268 251 255 278 298 291 296 304 300 310 320 311 247 182 173 175 177 182 187 189 189 188 188 189 195 205 214 222 237 248 256 268 277 284 289 294 294 295 301 306 298 304 308 309
279 275 288 268 294 285 265 277 289 284 281 306 260 238 201 189 191 194 193 189 188 190 189 192 198 206 216 230 243 249 259 270 280 286 290 291 292 297 300 297 298 317 311 314
265 290 299 288 297 292 282 265 274 282 306 291 280 254 236 212 202 197 194 189 188 188 190 194 199 210 225 242 249 256 264 271 279 286 290 291 295 299 298 287 302 314 314 311
266 279 276 278 279 277 275 278 283 278 275 273 283 257 242 213 203 198 194 193 191 194 196 194 204 215 227 239 251 258 264 272 279 282 288 298 301 296 296 302 309 316 322 321
273 272 284 285 277 277 270 267 276 278 274 269 262 255 229 221 199 202 197 198 195 194 194 200 209 226 240 242 249 258 267 274 280 287 292 292 290 295 303 306 311 318 322 321
267 266 266 272 275 276 279 282 268 267 270 250 246 254 233 211 221 203 192 195 194 189 196 206 219 232 242 249 256 262 271 279 285 285 288 294 296 303 307 311 312 312 315 314
284 277 277 269 274 288 284 275 274 263 255 237 244 230 217 216 205 185 185 191 186 202 204 215 228 220 234 250 262 274 285 289 288 288 293 295 300 304 307 306 299 312 308 311
288 310 341 336 322 312 296 285 278 264 246 236 238 228 211 203 181 175 180 186 208 198 201 209 215 228 245 262 276 283 274 272 284 303 306 308 307 304 303 306 311 315 314 311
307 312 333 325 305 299 288 285 272 249 234 236 235 214 199 187 176 172 182 194 194 202 212 215 220 240 261 279 273 270 284 311 320 319 312 306 307 308 311 313 309 309 313 311
304 292 295 313 301 299 297 291 271 240 235 223 208 203 190 187 182 188 189 192 195 193 199 220 236 253 272 263 273 294 311 310 309 305 305 309 307 308 306 303 310 308 314 308
311 308 297 298 299 294 297 284 261 228 207 225 220 188 185 177 168 179 182 183 184 194 203 223 251 269 277 276 283 298 309 310 310 310 313 319 317 316 310 304 302 299 308 316
310 303 300 307 293 296 290 264 236 213 208 186 179 165 156 156 168 177 175 175 189 203 221 239 260 271 238 139 306 304 314 322 329 327 323 318 322 322 317 306 301 291 303 311
311 307 292 306 311 293 240 230 205 176 164 164 165 156 161 167 171 170 176 197 193 205 236 257 269 199 144 327 298 317 327 341 336 333 342 337 322 323 317 307 300 292 293 304
310 297 304 304 270 156 153 161 164 161 146 146 150 162 173 169 170 171 175 189 206 222 249 260 197 140 265 292 312 331 340 339 338 336 334 330 329 326 319 302 296 297 295 298
303 295 325 156 118 125 129 151 131 135 139 146 160 171 166 160 156 168 173 182 206 245 253 208 167 193 230 288 322 343 339 341 336 335 331 330 331 336 331 304 289 289 291 290
286 237 134 137 126 125 130 133 125 124 139 150 150 153 155 150 169 166 183 179 196 225 84 96 60 117 276 302 327 345 332 343 345 344 335 338 334 329 333 329 300 301 284 289
25 122 126 129 121 118 122 132 135 145 148 144 139 139 135 139 151 161 163 141 90 70 63 35 13 307 302 307 322 329 331 342 345 350 347 347 350 343 337 337 314 299 304 276
132 131 121 117 124 129 136 143 141 136 139 138 136 137 136 141 142 127 118 100 83 49 44 21 356 330 312 312 309 325 334 345 347 337 345 342 333 333 346 338 338 308 300 282
Wind_Speed_850mb
51 48 39 37 37 53 52 63 43 48 51 45 31 21 33 61 57 49 58 61 61 62 63 58 58 57 55 50 47 43 40 38 37 39 39 41 47 51 52 52 56 63 67 63
50 54 56 57 55 41 56 58 52 47 63 38 23 29 21 45 54 58 64 66 66 65 61 62 58 61 58 52 51 46 39 38 33 35 41 43 47 48 50 55 57 61 60 64
40 52 51 54 59 55 42 40 42 46 70 14 29 25 42 48 34 31 44 61 62 66 62 62 60 60 58 50 48 42 36 34 36 36 37 40 43 47 52 55 61 60 60 58
26 43 66 37 44 46 42 49 45 45 49 34 38 42 42 22 27 38 34 42 44 53 57 59 58 55 49 46 43 39 38 36 33 33 35 38 45 51 56 58 59 58 63 58
18 30 38 35 44 31 26 30 33 47 52 46 59 44 37 32 42 34 33 43 44 50 55 54 56 54 51 49 46 40 36 34 30 31 36 40 47 53 54 57 59 61 59 56
23 12 19 37 31 20 7 29 18 21 44 41 31 25 21 48 45 45 38 35 44 47 49 54 57 53 49 45 40 35 32 30 30 34 38 43 48 52 53 56 59 58 57 56
21 11 20 21 32 20 25 17 8 18 50 37 21 31 29 35 38 41 44 43 45 51 54 52 49 44 41 35 34 30 26 30 34 34 37 43 46 49 54 54 56 53 53 52
8 7 26 43 39 13 25 67 53 40 32 17 23 33 43 47 48 51 51 48 50 53 50 45 41 41 38 37 32 28 30 32 34 36 40 41 48 52 53 55 49 53 52 47
8 8 15 49 19 57 77 77 61 54 47 12 28 39 42 44 45 52 51 50 48 46 46 44 41 37 36 33 29 29 31 33 35 36 39 44 47 52 52 49 47 46 49 51
8 31 37 51 63 53 47 67 76 59 45 14 14 34 40 38 44 47 47 48 46 45 44 44 40 38 36 32 30 29 30 31 33 37 41 42 44 46 52 48 45 52 58 64
43 50 39 50 47 70 58 58 65 60 54 30 19 26 32 35 35 43 47 45 42 44 43 40 36 33 29 30 29 30 31 33 34 37 40 42 45 48 50 47 45 60 56 52
34 35 42 48 47 56 47 46 50 49 48 37 37 34 35 35 40 45 46 44 42 43 43 38 31 29 28 27 27 26 31 33 35 37 41 42 45 49 43 47 59 54 44 44
55 65 83 87 80 74 75 83 71 54 51 51 32 29 40 46 46 45 44 46 45 44 39 33 31 29 28 27 28 29 32 35 37 40 44 43 41 42 51 62 54 44 39 37
78 63 67 69 56 64 74 70 63 67 74 70 55 43 46 53 48 51 53 48 43 42 37 33 32 30 24 25 27 32 34 37 39 40 36 37 41 50 56 49 53 52 44 37
85 70 80 87 82 76 72 62 63 64 71 66 54 49 50 56 50 58 48 46 42 39 37 34 30 26 24 24 27 33 37 39 37 37 40 41 46 43 41 45 44 48 51 42
68 57 63 61 57 64 67 56 61 66 57 43 47 50 54 58 58 53 50 48 44 40 39 33 25 18 23 30 33 34 33 29 29 32 35 39 37 42 44 39 45 55 50 51
50 28 36 46 47 49 57 66 67 55 48 50 50 54 50 53 55 49 48 40 26 35 31 31 28 25 30 29 26 25 30 36 36 25 18 31 39 40 42 52 46 49 47 44
24 29 33 49 51 61 71 64 61 59 52 45 45 48 58 68 60 53 39 31 44 38 33 25 23 27 23 22 20 28 32 19 20 25 31 28 41 42 40 44 43 38 41 39
51 55 53 53 57 57 62 65 54 63 52 48 43 54 69 65 50 40 41 48 41 31 23 26 24 22 22 21 25 14 15 22 22 26 35 39 37 34 38 39 39 34 33 34
57 44 42 46 47 49 54 51 39 42 42 44 45 63 66 50 43 49 49 42 33 32 31 27 24 25 22 15 4 15 18 22 28 29 29 29 31 31 35 35 34 34 30 30
58 47 38 40 47 61 47 34 45 42 40 45 56 57 51 54 51 53 45 41 37 31 26 22 22 16 7 3 9 15 21 19 23 24 30 30 31 30 33 31 32 27 27 30
60 51 48 52 50 35 16 28 35 41 56 63 57 55 56 53 50 42 35 34 25 17 15 16 16 5 6 4 12 14 15 18 26 23 28 28 27 30 33 29 26 26 27 28
49 42 42 27 10 3 8 25 45 53 57 57 56 57 57 57 50 43 38 28 20 14 11 12 4 7 1 7 11 12 14 22 21 27 28 25 29 32 27 23 21 23 24 26
34 34 19 6 16 30 37 36 51 56 58 49 44 50 51 48 36 26 21 18 11 9 9 4 5 6 5 6 9 10 16 19 22 26 26 23 22 25 27 22 21 21 22 23
16 7 11 23 40 47 50 50 55 54 48 47 43 38 35 28 20 24 17 11 5 2 4 6 3 0 1 4 8 14 13 17 22 25 24 23 23 22 23 21 17 21 21 20
1 16 27 40 50 51 45 48 53 51 50 44 36 28 23 18 17 14 9 4 6 12 11 7 5 3 4 6 8 14 19 18 21 26 25 23 24 25 22 26 21 19 19 19
19 31 44 48 47 45 39 37 43 39 34 33 31 24 19 15 11 9 7 9 7 6 5 7 8 7 7 8 12 17 19 20 21 23 25 26 22 23 28 24 27 18 17 15
Wind_Direction_850mb
260 265 260 234 210 217 217 230 230 244 246 245 238 228 207 203 210 198 198 199 208 214 212 212 214 213 216 217 218 224 233 244 255 268 278 283 287 291 296 300 301 303 305 305
258 255 254 261 259 236 217 228 239 246 260 244 259 248 256 202 210 211 206 203 212 215 214 213 213 213 213 216 219 229 234 247 262 270 278 284 290 296 298 302 304 306 306 305
274 264 253 243 245 246 239 224 223 227 240 219 253 238 255 259 248 224 212 206 211 216 214 213 210 212 213 215 219 229 240 247 257 270 277 285 292 295 299 302 306 307 307 307
270 269 246 247 232 242 243 240 231 243 254 249 242 248 251 234 223 211 205 212 215 214 215 214 209 207 207 210 217 224 235 249 260 268 279 286 289 294 298 308 309 308 308 313
264 250 271 251 233 218 214 244 234 236 251 253 251 252 239 217 225 209 213 221 214 217 215 209 202 203 208 212 219 227 236 250 259 270 276 284 290 298 306 308 309 311 310 313
269 263 249 234 238 207 143 254 191 236 251 250 244 240 242 226 224 212 204 211 201 205 204 200 199 202 204 209 219 229 243 250 260 267 279 290 300 305 307 307 310 310 312 313
257 277 299 317 255 201 214 260 191 267 255 245 219 230 220 196 196 202 191 196 195 194 191 194 199 200 206 218 224 237 246 251 261 274 284 292 300 301 304 307 311 312 311 316
236 245 264 341 334 28 324 336 349 347 1 243 186 162 157 162 169 175 183 186 188 185 186 188 192 200 205 214 227 239 247 256 267 278 290 295 297 300 303 310 312 310 313 311
251 245 241 289 257 324 324 318 326 337 344 336 160 155 162 161 168 178 181 185 191 193 186 187 194 200 207 221 230 241 249 260 275 285 288 291 295 298 304 307 310 310 315 309
268 251 255 278 298 291 296 304 300 310 320 311 247 182 173 175 177 182 187 189 189 188 188 189 195 205 214 222 237 248 256 268 277 284 289 294 294 295 301 306 298 304 308 309
279 275 288 268 294 285 265 277 289 284 281 306 260 238 201 189 191 194 193 189 188 190 189 192 198 206 216 230 243 249 259 270 280 286 290 291 292 297 300 297 298 317 311 314
265 290 299 288 297 292 282 265 274 282 306 291 280 254 236 212 202 197 194 189 188 188 190 194 199 210 225 242 249 256 264 271 279 286 290 291 295 299 298 287 302 314 314 311
266 279 276 278 279 277 275 278 283 278 275 273 283 257 242 213 203 198 194 193 191 194 196 194 204 215 227 239 251 258 264 272 279 282 288 298 301 296 296 302 309 316 322 321
273 272 284 285 277 277 270 267 276 278 274 269 262 255 229 221 199 202 197 198 195 194 194 200 209 226 240 242 249 258 267 274 280 287 292 292 290 295 303 306 311 318 322 321
267 266 266 272 275 276 279 282 268 267 270 250 246 254 233 211 221 203 192 195 194 189 196 206 219 232 242 249 256 262 271 279 285 285 288 294 296 303 307 311 312 312 315 314
284 277 277 269 274 288 284 275 274 263 255 237 244 230 217 216 205 185 185 191 186 202 204 215 228 220 234 250 262 274 285 289 288 288 293 295 300 304 307 306 299 312 308 311
288 310 341 336 322 312 296 285 278 264 246 236 238 228 211 203 181 175 180 186 208 198 201 209 215 228 245 262 276 283 274 272 284 303 306 308 307 304 303 306 311 315 314 311
307 312 333 325 305 299 288 285 272 249 234 236 235 214 199 187 176 172 182 194 194 202 212 215 220 240 261 279 273 270 284 311 320 319 312 306 307 308 311 313 309 309 313 311
304 292 295 313 301 299 297 291 271 240 235 223 208 203 190 187 182 188 189 192 195 193 199 220 236 253 272 263 273 294 311 310 309 305 305 309 307 308 306 303 310 308 314 308
311 308 297 298 299 294 297 284 261 228 207 225 220 188 185 177 168 179 182 183 184 194 203 223 251 269 277 276 283 298 309 310 310 310 313 319 317 316 310 304 302 299 308 316
310 303 300 307 293 296 290 264 236 213 208 186 179 165 156 156 168 177 175 175 189 203 221 239 260 271 238 139 306 304 314 322 329 327 323 318 322 322 317 306 301 291 303 311
311 307 292 306 311 293 240 230 205 176 164 164 165 156 161 167 171 170 176 197 193 205 236 257 269 199 144 327 298 317 327 341 336 333 342 337 322 323 317 307 300 292 293 304
310 297 304 304 270 156 153 161 164 161 146 146 150 162 173 169 170 171 175 189 206 222 249 260 197 140 265 292 312 331 340 339 338 336 334 330 329 326 319 302 296 297 295 298
303 295 325 156 118 125 129 151 131 135 139 146 160 171 166 160 156 168 173 182 206 245 253 208 167 193 230 288 322 343 339 341 336 335 331 330 331 336 331 304 289 289 291 290
286 237 134 137 126 125 130 133 125 124 139 150 150 153 155 150 169 166 183 179 196 225 84 96 60 117 276 302 327 345 332 343 345 344 335 338 334 329 333 329 300 301 284 289
25 122 126 129 121 118 122 132 135 145 148 144 139 139 135 139 151 161 163 141 90 70 63 35 13 307 302 307 322 329 331 342 345 350 347 347 350 343 337 337 314 299 304 276
132 131 121 117 124 129 136 143 141 136 139 138 136 137 136 141 142 127 118 100 83 49 44 21 356 330 312 312 309 325 334 345 347 337 345 342 333 333 346 338 338 308 300 282